SCP
0 0 0 0 0 0 0 0 0 0 0 0 0 0 1 1 1 2 3 4 4 3 2 2 2 2 2 2 2 3 3 3 2 2 1 1 1 1 1 0 0 0 0 0
0 0 0 0 0 0 0 0 0 0 0 0 0 1 1 1 1 1 2 3 3 2 2 2 2 2 2 3 2 2 2 2 2 1 1 1 1 1 1 0 0 0 0 0
0 0 0 0 0 0 0 0 0 0 0 0 0 1 1 1 1 1 1 2 2 2 2 2 2 2 2 2 2 2 2 2 2 1 1 1 1 1 1 1 1 0 0 0
0 0 0 0 0 0 0 0 0 0 0 0 0 0 1 1 1 1 1 1 1 1 1 2 2 2 2 2 2 2 2 2 2 2 1 1 1 1 1 1 1 1 0 0
0 0 0 0 0 0 0 0 0 0 0 0 0 0 1 1 1 0 1 1 1 1 1 1 1 2 2 2 2 2 2 3 2 2 1 1 1 1 1 1 1 1 1 1
0 0 0 0 0 0 0 0 0 0 0 0 0 0 0 0 0 0 0 1 1 1 1 1 1 2 2 2 1 2 2 2 2 2 1 1 1 1 1 1 1 0 1 1
0 0 0 0 0 0 0 0 0 0 0 0 0 0 0 0 0 0 0 0 1 1 1 1 1 1 2 1 1 1 2 2 2 1 1 1 1 1 1 0 0 0 1 1
0 0 0 0 0 0 0 0 0 0 0 0 0 0 0 0 0 0 0 0 1 1 1 1 1 1 1 1 1 2 2 2 1 1 2 2 2 1 1 1 1 1 1 1
0 0 0 0 0 0 0 0 0 0 0 0 0 0 0 0 0 0 0 0 0 1 1 1 1 1 1 2 2 2 2 2 1 1 2 2 2 1 1 1 1 1 1 2
0 0 0 0 0 0 0 0 0 0 0 0 0 0 0 0 0 0 0 0 0 1 1 1 1 1 1 2 2 2 2 1 1 1 2 2 2 1 1 1 2 2 2 3
0 0 0 0 0 0 0 0 0 0 0 0 0 0 0 0 0 0 0 0 0 0 1 1 1 1 1 1 1 1 1 1 1 1 1 2 1 1 1 2 2 3 3 3
0 0 0 0 0 0 0 0 0 0 0 0 0 0 0 0 0 0 0 0 0 1 1 1 1 1 1 1 1 1 1 1 1 1 2 2 2 2 2 2 2 3 3 3
1 1 1 0 0 0 0 0 0 0 0 0 0 0 0 0 0 0 0 0 1 1 1 1 1 1 1 1 2 2 2 2 2 2 2 2 2 2 2 2 3 3 3 3
1 1 1 0 0 0 0 0 0 0 0 0 0 0 1 1 0 0 0 1 1 1 1 1 1 1 1 2 2 3 3 3 3 3 3 3 3 3 3 3 3 3 3 3
1 1 1 1 0 0 0 0 0 0 0 0 0 0 1 1 1 1 1 1 1 1 1 1 1 2 2 2 3 3 4 4 4 4 4 4 4 4 4 4 4 4 4 3
1 1 1 1 0 0 0 0 0 0 0 0 0 1 1 1 1 1 1 1 1 1 2 2 2 2 2 3 3 4 5 5 5 5 5 5 5 5 5 5 5 5 4 4
2 2 1 1 0 0 0 0 0 0 0 0 1 1 1 1 1 1 1 1 1 2 2 3 3 3 3 3 4 5 5 5 5 5 5 6 6 5 5 5 6 6 5 5
2 2 1 1 1 0 0 0 0 0 1 1 1 1 1 1 1 1 1 1 1 2 2 3 4 4 3 3 4 5 5 5 5 5 5 6 5 5 5 6 6 6 6 5
1 1 1 1 1 0 0 1 1 1 1 1 1 1 1 1 1 1 1 1 1 2 2 3 3 3 3 2 3 4 5 5 5 5 5 5 5 4 5 5 6 6 5 4
1 1 1 1 1 1 1 1 1 1 1 1 1 1 1 1 1 1 1 1 1 2 2 2 2 2 2 3 3 3 4 5 5 5 5 5 5 4 4 4 5 4 4 3
1 1 1 1 1 1 1 1 1 1 1 1 1 1 1 1 1 1 1 1 1 1 1 2 2 2 2 3 3 3 3 3 3 4 4 4 4 3 3 3 3 3 3 2
1 1 1 1 1 1 1 1 1 1 1 1 1 1 1 1 1 1 1 1 1 1 1 1 2 2 2 2 2 2 2 2 2 2 2 2 2 2 2 2 2 3 2 2
1 1 1 1 1 1 1 1 1 1 1 1 1 1 1 1 1 1 1 1 1 1 1 1 2 2 2 1 2 2 2 2 1 1 1 1 1 1 1 1 2 2 2 2
1 1 1 1 1 1 1 1 1 1 1 1 1 1 1 1 1 1 1 1 1 1 1 1 1 1 1 1 1 1 1 1 1 1 1 1 1 1 1 1 2 2 2 1
1 1 2 2 1 1 1 1 1 1 1 1 1 1 1 1 1 1 1 1 1 1 0 1 1 1 1 1 1 1 1 1 1 1 1 1 1 1 1 1 1 1 1 1
1 1 2 2 1 1 1 1 1 1 1 1 1 1 1 1 1 1 1 1 1 0 0 0 0 0 0 0 0 0 0 0 0 1 0 0 1 1 1 1 1 1 1 1
Wind_Speed
8 10 9 5 6 9 10 10 9 5 1 6 7 7 4 6 7 8 9 10 11 11 10 10 10 9 10 10 10 10 10 9 8 7 7 6 6 5 5 5 6 5 4 4
9 12 8 6 7 9 10 10 8 2 1 6 7 8 4 5 7 7 9 10 12 12 12 11 11 10 11 11 11 11 10 10 9 7 5 5 5 5 5 4 5 5 5 4
14 6 2 7 9 9 9 8 9 7 3 6 8 7 5 6 6 7 8 10 12 13 14 14 12 12 12 12 12 10 11 10 9 9 6 6 5 5 5 6 5 5 5 4
12 9 7 10 9 9 8 4 6 6 8 4 4 7 3 6 7 8 9 11 12 13 14 14 14 13 13 13 12 12 11 10 10 10 8 9 7 6 6 5 5 6 6 5
10 8 9 11 8 7 6 2 5 7 8 8 4 7 3 6 6 8 10 11 13 14 15 15 15 14 13 13 12 12 11 11 10 10 9 9 7 6 5 5 6 6 6 6
15 10 8 9 4 4 2 5 6 7 8 6 2 6 2 2 3 6 10 12 13 14 14 14 14 14 13 13 12 12 12 11 11 11 10 10 8 7 6 7 7 7 6 6
16 14 10 8 8 6 8 9 7 6 5 1 3 5 3 2 3 6 9 12 13 14 14 14 15 15 14 14 14 13 13 13 12 12 11 10 9 8 8 8 7 6 5 6
14 12 11 9 10 7 8 9 8 7 7 5 2 4 3 4 4 6 8 11 13 14 14 15 15 15 15 16 15 15 14 14 13 12 11 10 9 8 7 7 6 6 5 5
11 9 4 5 5 7 6 8 7 9 9 8 3 1 2 6 7 9 10 12 13 14 15 16 16 16 16 16 16 16 15 14 14 13 11 10 10 9 7 7 7 6 5 5
11 11 7 6 6 5 7 5 4 8 7 7 4 3 1 5 8 10 12 13 14 15 15 16 16 16 16 16 15 15 15 15 14 13 12 10 11 10 8 8 8 6 6 6
12 11 9 8 10 9 7 8 8 8 7 8 7 3 5 1 5 9 11 12 14 15 16 15 15 15 15 15 16 15 15 14 14 13 12 11 11 11 10 9 9 8 8 8
10 9 10 9 2 4 9 10 9 8 8 7 8 3 6 2 3 6 8 10 12 14 14 15 15 15 15 16 16 16 15 15 14 13 13 12 11 11 11 10 10 9 9 9
7 7 9 8 7 7 8 9 10 9 8 8 9 2 7 3 1 3 5 8 10 12 14 14 15 15 15 15 15 16 16 15 15 14 13 13 13 13 12 11 11 10 10 10
5 7 10 10 4 3 7 9 10 11 9 9 9 8 1 1 1 1 3 6 9 11 12 13 14 14 14 15 15 15 15 15 14 14 14 14 14 13 13 12 11 11 11 10
6 8 9 8 5 6 9 9 10 12 12 12 10 8 5 4 3 2 2 4 7 9 11 12 13 13 13 14 14 14 14 14 13 14 14 14 13 12 12 12 11 11 11 11
5 6 7 8 6 7 10 11 11 12 12 13 12 9 3 3 3 3 1 2 5 7 9 10 11 11 12 13 13 13 13 13 13 13 13 13 12 12 12 12 12 11 11 11
7 6 7 8 4 8 11 8 8 8 7 9 9 3 3 3 5 5 4 2 1 2 4 6 7 8 9 10 11 12 12 11 12 12 11 11 12 12 12 12 12 12 11 11
5 6 5 5 5 9 1 2 2 5 4 3 3 2 2 4 5 6 6 5 3 1 1 2 3 4 5 6 8 8 9 10 10 11 11 11 11 11 11 11 11 11 10 10
4 5 4 5 8 7 4 2 1 3 1 3 2 2 2 5 6 7 8 6 5 4 3 2 1 2 3 4 5 7 7 8 9 9 9 10 10 10 10 11 11 10 10 10
4 5 6 6 7 5 3 5 0 4 3 5 3 2 1 3 3 6 7 7 6 6 5 5 4 4 4 3 4 5 6 6 6 6 6 6 7 8 9 9 9 8 8 9
7 6 8 7 7 2 6 2 3 5 4 5 4 4 3 4 6 6 6 8 8 8 7 7 7 7 6 5 4 4 3 2 2 2 3 4 5 6 6 6 7 7 8 8
6 6 6 5 6 1 5 1 2 5 6 5 6 7 8 9 9 8 8 9 9 9 9 9 8 8 8 6 6 5 4 3 2 3 3 3 4 4 4 5 6 6 7 8
3 2 1 1 3 6 4 4 5 5 6 6 7 8 9 10 10 10 9 9 10 10 10 9 10 10 9 9 7 7 5 4 3 2 3 2 2 2 2 4 5 5 6 7
3 1 1 1 4 5 4 4 5 5 7 8 9 9 10 11 10 10 9 9 10 10 9 9 10 10 10 9 9 7 6 5 3 3 2 2 2 1 1 2 3 4 4 5
3 1 1 1 3 4 5 5 7 8 10 11 12 11 11 11 10 9 8 9 9 9 8 8 9 9 9 8 8 7 6 5 4 4 3 2 2 2 0 1 2 3 3 3
5 5 4 2 3 1 5 6 8 10 11 12 13 13 11 11 10 9 8 7 8 8 7 8 8 9 8 7 7 7 6 5 4 4 3 3 2 2 1 1 1 2 3 3
Wind_Direction
208 241 245 272 296 305 303 301 308 332 329 256 264 269 238 187 199 200 190 183 180 181 173 171 177 179 176 174 172 172 169 164 164 165 164 163 161 158 151 148 141 147 137 132
226 236 256 286 284 277 280 288 302 313 205 266 281 271 242 198 205 204 195 188 185 178 172 177 181 181 182 181 179 176 174 174 175 163 159 163 152 158 152 153 147 156 152 155
239 252 271 272 274 281 281 297 318 319 278 236 274 251 194 177 190 194 197 192 188 183 178 177 182 183 184 185 182 180 178 176 172 159 161 152 150 165 166 168 166 167 168 168
244 256 260 269 277 287 291 333 303 289 275 291 284 304 156 177 187 192 197 195 188 185 183 180 182 185 185 183 180 177 175 174 168 170 175 174 181 181 175 179 165 168 179 177
231 231 255 271 288 289 312 331 281 279 281 285 241 284 99 168 202 193 191 191 189 184 184 184 186 185 182 178 176 171 171 172 174 181 179 188 191 182 172 175 161 182 175 184
256 256 264 274 289 281 207 225 234 242 256 265 6 295 4 143 195 177 179 185 187 185 184 184 183 182 179 176 174 169 171 176 179 184 185 196 189 187 181 185 178 192 182 186
237 239 231 239 238 203 223 255 263 249 238 337 70 282 359 86 170 176 175 180 184 185 184 182 180 181 179 177 177 175 175 179 182 186 190 192 192 192 196 201 193 206 195 190
234 234 215 215 240 252 233 262 280 301 311 325 192 286 36 120 158 173 176 176 178 182 183 183 182 182 181 180 179 179 181 182 184 188 191 192 194 202 200 203 211 203 210 195
240 242 184 206 230 251 234 244 290 284 278 280 283 272 166 150 174 179 179 177 180 182 183 184 184 184 184 183 183 184 184 185 188 190 190 194 198 209 201 186 207 204 199 184
249 259 229 183 193 211 272 276 245 267 283 283 275 275 12 156 179 181 185 186 183 184 186 187 186 188 188 187 186 188 188 191 192 192 195 194 196 199 196 200 200 195 191 188
237 248 232 208 223 225 199 222 246 265 282 289 296 336 54 93 182 188 188 189 187 188 189 188 189 190 190 189 187 190 192 194 195 197 197 199 196 195 195 198 195 191 192 189
214 238 247 230 215 285 245 246 236 251 259 260 283 311 80 82 163 186 191 187 189 190 190 190 190 190 191 192 192 192 195 197 198 197 196 198 198 195 197 198 196 192 192 196
182 219 234 216 197 201 229 232 239 252 264 259 267 278 112 108 118 169 193 189 190 192 192 191 190 191 194 196 197 198 200 200 199 196 198 198 198 197 201 201 196 195 195 200
217 234 252 261 268 213 220 220 225 234 248 258 260 282 277 358 353 163 193 195 194 193 196 196 194 195 198 199 200 202 204 203 200 197 198 198 200 199 200 199 197 197 198 200
225 238 246 264 271 260 256 241 223 236 257 272 281 285 314 351 359 342 237 200 196 192 194 199 201 200 201 202 203 205 205 203 200 198 199 199 198 197 199 198 199 199 201 205
218 248 244 243 235 244 253 250 241 244 256 263 270 276 9 32 31 29 2 214 195 197 199 198 200 202 204 206 206 204 204 200 196 200 202 197 193 193 196 198 198 200 205 211
196 216 237 244 224 252 246 243 244 245 253 267 273 316 51 50 47 34 16 351 241 207 201 200 200 202 204 205 203 202 200 193 193 198 200 194 192 193 196 198 199 203 207 211
205 214 237 250 234 245 227 51 285 266 269 297 317 12 55 78 83 62 33 17 13 21 157 182 195 194 198 199 198 199 192 188 191 196 198 194 195 194 197 201 204 207 211 214
225 212 237 251 244 246 169 150 248 257 211 27 2 53 111 139 136 87 45 32 28 26 33 52 82 142 157 172 179 179 182 181 190 197 198 195 196 196 196 203 207 209 213 218
186 218 231 233 257 256 91 95 34 255 178 66 43 60 125 206 220 78 40 32 37 40 41 42 55 71 85 100 135 153 161 170 186 192 192 188 194 199 202 204 207 207 212 222
185 200 226 235 249 250 75 100 224 252 81 74 65 66 80 68 52 69 55 49 48 50 56 59 58 58 55 63 89 108 116 134 158 168 169 172 185 201 209 209 210 214 217 224
207 202 211 228 240 160 87 161 344 61 96 101 92 87 89 94 92 84 72 64 60 58 57 62 65 60 53 53 73 78 67 51 76 112 132 159 179 200 199 210 215 219 227 229
241 319 303 315 48 71 68 56 73 112 118 112 106 103 106 102 95 88 80 73 66 62 60 62 70 67 59 53 56 64 57 48 57 89 117 132 145 174 206 216 221 224 224 243
138 7 244 142 93 90 87 92 105 110 113 114 111 110 108 102 97 90 83 76 69 62 60 62 68 67 61 54 53 52 48 47 54 58 64 91 109 144 187 239 241 242 244 245
27 226 228 192 106 106 98 99 113 113 113 111 108 105 104 102 96 91 85 79 75 70 63 59 62 65 63 57 53 50 52 52 58 58 54 59 74 75 39 271 306 292 297 313
7 345 322 10 68 52 99 112 126 123 119 115 112 106 101 99 99 94 85 78 74 72 68 65 64 65 64 61 55 48 45 45 47 50 38 30 32 30 347 327 288 231 259 256